www.pogodaiklimat.ru

Погода и климат >> Архив погоды >> Франция >> Бокузе


ПОГОДА в Бокузе

  • Прогноз погоды в Бокузе
  • Монитор погоды в Бокузе

АРХИВ ПОГОДЫ в Бокузе

Время (UTC), дата Ветер
(напр.,м/с)
 
Видим.   Явления Облачность Т
(С)
Тd
(С)
f
(%)
Тe
(С)
Тes
(С)
Комфортность P
(гПа)
Po
(гПа)
Тmin
(С)
Tmax
(С)
R
(мм)
R24
(мм)
S
(см)
22 8.09 штиль 0 20 км н/о +9.2 +4.2 71 +9 +9 1021.5 1015.6
23 8.09 штиль 0 20 км н/о +8.5 +3.9 73 +8 +8 1021.1 1015.2
00 9.09 З 1
{1}
20 км н/о +8.1 +4.1 76 +8 +8 1020.7 1014.8 0
01 9.09 штиль 0 20 км н/о +7.2 +4.2 81 +6 +6 1020.1 1014.2
02 9.09 штиль 0 20 км н/о +6.6 +4.4 86 +6 +6 1019.9 1014.0
03 9.09 СЗ 1
{1}
20 км н/о +6.0 +4.0 87 +6 +6 1019.4 1013.5 0
04 9.09 штиль 0 20 км н/о +6.7 +4.7 87 +6 +6 1018.8 1012.9
05 9.09 штиль 0 20 км н/о +6.8 +4.6 86 +6 +6 1017.8 1011.9
06 9.09 ЮВ 1
{1}
20 км н/о +7.1 +4.9 86 +7 +7 1017.5 1011.6 +6.0 +17.4 0
07 9.09 ЮВ 1 20 км н/о +9.8 +6.0 77 +10 +10 1017.3 1011.4
08 9.09 Ю 1 20 км н/о +12.3 +5.9 65 +13 +13 1016.9 1011.1
09 9.09 Ю 1
{3}
20 км н/о +15.1 +5.9 54 +16 +16 1016.8 1011.1 0
10 9.09 ЮЗ 2 20 км н/о +17.1 +4.7 44 +17 +17 1016.4 1010.7
11 9.09 ЮЗ 2 20 км н/о +18.8 +5.9 43 +20 +20 1015.5 1009.8
12 9.09 ЮЗ 3
{9}
20 км н/о +19.7 +5.0 38 +21 +21 комфорт 1014.6 1009.0 0
13 9.09 ЮЗ 3 20 км н/о +19.0 +4.7 39 +20 +20 1014.2 1008.5
14 9.09 ЮЗ 2 20 км н/о +18.5 +6.0 44 +19 +19 1013.6 1007.9
15 9.09 ЮЗ 2
{8}
20 км н/о +16.8 +8.2 57 +17 +17 1013.1 1007.4 0
16 9.09 Ю 1 20 км н/о +16.6 +9.3 62 +17 +17 1012.3 1006.6 0.0
17 9.09 ЮЗ 1 19 км слаб. дождь н/о +15.7 +10.5 71 +16 +16 1012.3 1006.6 0.2
18 9.09 Ю 1
{3}
6000 м дождь н/о +14.2 +11.5 84 +15 +15 1012.3 1006.6 +7.1 +20.3 1 0
19 9.09 ЮВ 1 12 км слаб. дождь н/о +13.8 +11.7 87 +14 +14 1011.8 1006.1 0.8
20 9.09 ЮВ 1 10 км слаб. дождь н/о +13.5 +12.2 92 +14 +14 1011.7 1006.0 1
21 9.09 В 1
{5}
13 км слаб. дождь н/о +13.3 +12.2 93 +13 +13 1011.7 1006.0 3 0
22 9.09 В 1 18 км н/о +12.9 +12.0 94 +13 +13 1011.3 1005.6 0.0
23 9.09 В 1 20 км н/о +12.9 +11.8 93 +14 +14 1011.9 1006.2
00 10.09 СВ 1
{3}
15 км н/о +12.6 +11.5 93 +13 +13 1011.7 1005.9 0.0 0
01 10.09 СВ 1 19 км н/о +12.3 +11.2 93 +12 +12 1012.0 1006.2
02 10.09 СВ 1 15 км н/о +12.1 +11.2 94 +12 +12 1012.4 1006.6 0.0
03 10.09 СВ 1
{4}
20 км н/о +11.8 +10.7 93 +12 +12 1013.0 1007.2 0.0 0
04 10.09 С 1 16 км н/о +11.2 +10.1 93 +11 +11 1013.4 1007.6
05 10.09 С 1 20 км н/о +11.1 +10.3 95 +11 +11 1014.1 1008.3 0.2
06 10.09 С 1
{4}
20 км н/о +10.6 +9.7 94 +10 +10 1014.9 1009.1 +10.5 +14.2 4 0
07 10.09 С 1 20 км н/о +11.4 +10.3 93 +11 +11 1015.8 1010.0
08 10.09 СВ 2 20 км н/о +13.8 +10.4 80 +14 +14 1016.6 1010.8
09 10.09 СВ 2
{6}
20 км н/о +16.2 +10.3 68 +17 +17 1017.5 1011.8 0
10 10.09 С 2 20 км н/о +18.0 +9.1 56 +19 +19 1018.5 1012.8
11 10.09 С 2 20 км н/о +19.3 +8.3 49 +21 +21 комфорт 1018.9 1013.2
12 10.09 С 3
{9}
20 км н/о +21.1 +7.7 42 +22 +22 комфорт 1019.2 1013.6 0
13 10.09 С 3 20 км н/о +21.6 +6.3 37 +22 +22 комфорт 1019.3 1013.7
14 10.09 СВ 2 20 км н/о +21.8 +6.5 37 +23 +23 комфорт 1019.2 1013.6
15 10.09 С 2
{8}
20 км н/о +22.4 +6.2 35 +23 +23 комфорт 1019.3 1013.7 0
16 10.09 С 2 20 км н/о +22.3 +6.5 36 +23 +23 комфорт 1019.4 1013.8
17 10.09 С 2 20 км н/о +21.1 +6.6 39 +22 +22 комфорт 1020.1 1014.5
18 10.09 С 1
{7}
20 км н/о +19.7 +7.1 44 +22 +22 комфорт 1020.7 1015.0 +10.6 +22.8 0
19 10.09 СЗ 1 20 км н/о +17.0 +7.1 52 +19 +19 1021.4 1015.7
20 10.09 СЗ 1 20 км н/о +15.2 +7.5 60 +17 +17 1022.5 1016.7
21 10.09 СЗ 1
{5}
20 км н/о +14.9 +9.3 69 +15 +15 1023.2 1017.4 0
22 10.09 СЗ 1 20 км н/о +14.2 +10.8 80 +15 +15 1023.7 1017.9
23 10.09 СЗ 2 20 км н/о +13.7 +10.9 83 +13 +13 1024.2 1018.4
00 11.09 С 1
{4}
20 км н/о +12.5 +10.4 87 +12 +12 1024.1 1018.3 0
01 11.09 СЗ 1 19 км н/о +12.1 +10.3 89 +12 +12 1024.6 1018.8
02 11.09 СЗ 1 15 км н/о +11.4 +10.0 91 +12 +12 1024.4 1018.5
03 11.09 СЗ 1
{2}
10 км н/о +10.7 +9.5 92 +11 +11 1024.8 1018.9 0
04 11.09 штиль 0 10 км н/о +11.0 +10.1 94 +10 +10 1024.8 1018.9
05 11.09 штиль 0 9000 м н/о +11.4 +10.6 95 +11 +11 1025.1 1019.2
06 11.09 СЗ 1
{2}
8000 м н/о +11.6 +10.8 95 +12 +12 1025.8 1019.9 +10.7 +19.7 0
07 11.09 СЗ 1 7000 м н/о +12.4 +11.8 96 +13 +13 1026.6 1020.8
08 11.09 СЗ 1 7000 м н/о +13.4 +12.6 95 +13 +13 1027.0 1021.2
09 11.09 З 1
{3}
19 км н/о +15.9 +12.8 82 +17 +17 1027.6 1021.8 0
10 11.09 ЮЗ 2 20 км н/о +18.9 +11.9 64 +21 +21 комфорт 1027.4 1021.7
11 11.09 З 2 20 км н/о +19.4 +11.4 60 +21 +21 комфорт 1027.6 1021.9
12 11.09 З 2
{7}
20 км н/о +21.1 +10.0 49 +23 +23 комфорт 1027.6 1021.9 0
13 11.09 З 2 20 км н/о +22.0 +7.8 40 +23 +23 комфорт 1027.3 1021.6
14 11.09 З 2 20 км н/о +23.4 +5.3 31 +24 +24 комфорт 1026.9 1021.3
15 11.09 З 2
{7}
20 км н/о +23.8 +2.0 24 +23 +23 комфорт 1026.8 1021.2 0
16 11.09 СЗ 2 20 км н/о +24.2 +8.2 36 +25 +25 комфорт 1026.9 1021.3
17 11.09 СЗ 2 20 км н/о +22.7 +10.8 47 +25 +25 комфорт 1027.2 1021.6
18 11.09 З 2
{6}
20 км н/о +21.3 +12.2 56 +23 +23 комфорт 1027.5 1021.8 +11.6 +24.4 0
19 11.09 З 1 20 км н/о +18.8 +12.3 66 +21 +21 комфорт 1028.0 1022.3
20 11.09 З 2 20 км н/о +17.7 +13.2 75 +18 +18 1028.7 1023.0
21 11.09 З 2
{5}
20 км н/о +16.5 +13.0 80 +17 +17 1029.3 1023.5 0
22 11.09 З 2 20 км н/о +15.9 +13.2 84 +16 +16 1029.6 1023.8
23 11.09 З 1 20 км н/о +15.3 +13.1 87 +16 +16 1029.9 1024.1
00 12.09 З 1
{4}
20 км н/о +14.8 +13.2 90 +15 +15 1030.1 1024.3 0
01 12.09 З 2 20 км н/о +15.0 +13.4 90 +15 +15 1030.5 1024.7
02 12.09 З 2 19 км н/о +15.0 +13.9 93 +15 +15 1030.4 1024.6
03 12.09 З 2
{6}
3300 м дымка н/о +15.0 +14.4 96 +15 +15 1030.4 1024.6 0
04 12.09 З 1 2600 м дымка н/о +15.3 +14.8 97 +16 +16 1030.4 1024.6
05 12.09 З 2 4400 м дымка н/о +15.4 +14.9 97 +15 +15 1030.6 1024.8
06 12.09 СЗ 1
{5}
20 км н/о +15.8 +15.3 97 +16 +16 1031.1 1025.3 +14.7 +21.2 0
07 12.09 З 1 20 км н/о +16.0 +15.0 94 +17 +17 1031.7 1025.9
08 12.09 З 1 20 км н/о +17.1 +15.3 89 +18 +18 1032.1 1026.3
09 12.09 СЗ 1
{4}
20 км н/о +18.4 +15.1 81 +20 +20 1032.7 1027.0 0
10 12.09 ЮЗ 1 20 км н/о +21.5 +15.3 68 +25 +25 комфорт 1033.0 1027.3
11 12.09 СЗ 1 20 км н/о +21.8 +14.7 64 +25 +25 комфорт 1032.7 1027.0
12 12.09 ЮВ 1
{4}
20 км н/о +22.1 +14.7 63 +25 +25 комфорт 1032.6 1026.9 0
13 12.09 СЗ 1 20 км н/о +23.5 +14.8 58 +26 +26 жарко 1032.2 1026.6
14 12.09 З 1 20 км н/о +25.1 +13.9 50 +27 +27 жарко 1031.7 1026.1
15 12.09 СЗ 1
{4}
20 км н/о +24.5 +14.3 53 +27 +27 жарко 1031.4 1025.8 0
16 12.09 СЗ 1 20 км н/о +26.2 +15.0 50 +29 +29 жарко 1031.1 1025.5
17 12.09 З 2 20 км н/о +25.3 +14.1 50 +28 +28 жарко 1031.2 1025.6
18 12.09 С 2
{6}
20 км н/о +22.5 +14.3 60 +26 +26 жарко 1031.4 1025.7 +15.8 +26.3 0
19 12.09 С 1 20 км н/о +19.9 +13.8 68 +23 +23 комфорт 1031.6 1025.9
20 12.09 СЗ 1 20 км н/о +17.7 +13.6 77 +19 +19 1032.2 1026.4
21 12.09 штиль 0
{1}
20 км н/о +16.4 +13.7 84 +16 +16 1032.3 1026.5 0
22 12.09 штиль 0 20 км н/о +15.5 +13.5 88 +15 +15 1032.7 1026.9
23 12.09 штиль 0 20 км н/о +14.0 +12.6 91 +14 +14 1032.3 1026.5
00 13.09 СЗ 1
{1}
20 км н/о +13.6 +12.3 92 +14 +14 1032.2 1026.4 0
01 13.09 СЗ 1 20 км н/о +13.3 +12.5 95 +14 +14 1032.4 1026.5
02 13.09 штиль 0 17 км н/о +13.4 +12.8 96 +13 +13 1032.4 1026.5
03 13.09 штиль 0
{1}
12 км н/о +12.9 +12.3 96 +12 +12 1032.4 1026.5 0
04 13.09 С 1 400 м туман н/о +11.6 +10.8 95 +12 +12 1032.1 1026.2 0.2
05 13.09 С 1 6000 м н/о +12.2 +11.7 97 +13 +13 1032.4 1026.5
06 13.09 штиль 0
{2}
1700 м дымка н/о +12.8 +12.3 97 +12 +12 1032.9 1027.0 +11.3 +22.5 0.2 0
07 13.09 СВ 1 19 км н/о +15.0 +14.7 98 +15 +15 1033.0 1027.2
08 13.09 СВ 2 20 км н/о +17.8 +15.8 88 +19 +19 1033.5 1027.7
09 13.09 СВ 3
{7}
20 км н/о +19.8 +14.6 72 +22 +22 комфорт 1033.4 1027.7 0
10 13.09 СВ 3 20 км н/о +21.7 +14.8 65 +25 +25 комфорт 1032.9 1027.2
11 13.09 СВ 2 20 км н/о +23.2 +15.0 60 +27 +27 душно 1032.2 1026.5
12 13.09 СВ 2
{7}
20 км н/о +24.5 +15.1 56 +27 +27 жарко 1031.8 1026.2 0
13 13.09 СВ 2 20 км н/о +25.4 +15.1 53 +28 +28 жарко 1031.3 1025.7
14 13.09 СВ 2 20 км н/о +26.3 +15.4 51 +29 +29 жарко 1030.7 1025.1
15 13.09 СВ 2
{10}
20 км н/о +26.5 +14.9 49 +29 +29 жарко 1029.9 1024.3 0
16 13.09 СВ 2 20 км н/о +26.5 +14.3 47 +29 +29 жарко 1029.6 1024.0
17 13.09 СВ 2 20 км н/о +25.7 +14.5 50 +28 +28 жарко 1029.4 1023.8
18 13.09 СВ 2
{9}
20 км н/о +23.9 +14.0 54 +26 +26 жарко 1029.8 1024.2 +12.8 +26.8 0
19 13.09 СВ 1 20 км н/о +21.5 +13.9 62 +24 +24 комфорт 1030.0 1024.3
20 13.09 СВ 2 20 км н/о +20.5 +13.7 65 +24 +24 комфорт 1030.1 1024.4
21 13.09 СВ 2
{6}
20 км н/о +19.9 +13.8 68 +23 +23 комфорт 1030.1 1024.4 0
22 13.09 СВ 2 20 км н/о +19.1 +13.9 72 +21 +21 комфорт 1030.0 1024.3
23 13.09 СВ 1 20 км н/о +18.0 +13.5 75 +19 +19 1030.0 1024.3
00 14.09 СВ 2
{4}
20 км н/о +17.2 +13.5 79 +18 +18 1030.4 1024.6 0
01 14.09 СВ 1 20 км н/о +16.4 +13.1 81 +17 +17 1030.4 1024.6
02 14.09 С 1 20 км н/о +15.7 +13.0 84 +16 +16 1030.0 1024.2
03 14.09 СВ 2
{5}
20 км н/о +15.6 +13.6 88 +16 +16 1029.6 1023.8 0
04 14.09 СВ 2 20 км н/о +15.4 +13.6 89 +15 +15 1029.4 1023.6
05 14.09 СВ 1 20 км н/о +15.1 +13.6 91 +16 +16 1029.5 1023.7
06 14.09 СВ 1
{4}
19 км н/о +14.8 +13.8 94 +15 +15 1029.8 1024.0 +14.8 +23.9 0
07 14.09 СВ 2 20 км н/о +16.2 +14.6 90 +17 +17 1029.7 1023.9
08 14.09 СВ 2 20 км н/о +18.5 +14.8 79 +20 +20 1029.5 1023.8
09 14.09 СВ 3
{7}
19 км н/о +20.6 +14.9 70 +24 +24 комфорт 1029.1 1023.4 0
10 14.09 В 2 20 км н/о +22.9 +15.2 62 +27 +27 душно 1028.5 1022.9
11 14.09 В 2 20 км н/о +24.4 +15.1 56 +27 +27 жарко 1028.2 1022.6
12 14.09 СВ 2
{7}
20 км н/о +26.1 +15.5 52 +29 +29 жарко 1027.5 1021.9 0
13 14.09 СВ 2 20 км н/о +26.8 +15.5 50 +30 +30 душно 1026.9 1021.3
14 14.09 СВ 2 20 км н/о +27.7 +15.4 47 +31 +31 душно 1026.4 1020.9
15 14.09 СВ 2
{8}
20 км н/о +27.8 +15.1 46 +30 +30 жарко 1025.7 1020.2 0
16 14.09 СВ 2 20 км н/о +27.9 +14.5 44 +30 +30 жарко 1025.5 1020.0
17 14.09 СВ 2 20 км н/о +27.6 +14.2 44 +30 +30 жарко 1025.4 1019.9
18 14.09 СВ 1
{5}
20 км н/о +26.0 +13.8 47 +28 +28 жарко 1025.5 1019.9 +14.9 +28.4 0
19 14.09 СВ 1 20 км н/о +22.5 +13.6 57 +26 +26 жарко 1025.6 1020.0
20 14.09 С 1 20 км н/о +20.3 +14.0 67 +24 +24 комфорт 1026.0 1020.3
21 14.09 СВ 1
{2}
20 км н/о +19.3 +13.7 70 +22 +22 комфорт 1026.1 1020.4 0
22 14.09 штиль 0 20 км н/о +18.5 +13.8 74 +19 +19 1025.9 1020.2
23 14.09 С 1 20 км н/о +17.1 +13.6 80 +19 +19 1025.7 1020.0
00 15.09 С 1
{2}
20 км н/о +16.2 +13.1 82 +18 +18 1025.7 1019.9 0
01 15.09 В 1 20 км н/о +15.9 +13.0 83 +17 +17 1025.2 1019.4
02 15.09 СВ 1 20 км н/о +14.6 +13.0 90 +16 +16 1025.1 1019.3
03 15.09 С 1
{1}
20 км н/о +14.3 +12.8 91 +15 +15 1025.2 1019.4 0
04 15.09 С 1 20 км н/о +13.8 +12.5 92 +15 +15 1024.6 1018.8
05 15.09 С 1 20 км н/о +13.5 +12.4 93 +14 +14 1024.6 1018.8
06 15.09 С 1
{2}
19 км н/о +13.0 +11.9 93 +14 +14 1024.9 1019.1 +13.0 +25.9 0
07 15.09 СВ 1 20 км н/о +15.5 +13.5 88 +17 +17 1025.2 1019.4
08 15.09 СВ 1 20 км н/о +19.1 +13.1 68 +21 +21 комфорт 1025.2 1019.5
09 15.09 В 1
{3}
20 км н/о +22.2 +13.3 57 +25 +25 комфорт 1025.3 1019.7 0
10 15.09 С 1 20 км н/о +24.9 +14.7 53 +28 +28 жарко 1025.0 1019.4
11 15.09 СВ 2 20 км н/о +26.7 +13.8 45 +29 +29 жарко 1024.5 1019.0
12 15.09 СВ 2
{7}
20 км н/о +28.1 +13.6 41 +30 +30 жарко 1023.7 1018.2 0
13 15.09 В 2 20 км н/о +28.8 +13.1 38 +30 +30 жарко 1023.0 1017.5
14 15.09 СВ 2 20 км н/о +29.2 +13.0 37 +31 +31 жарко 1022.6 1017.1
15 15.09 С 1
{6}
20 км н/о +29.6 +12.1 34 +30 +30 жарко 1021.9 1016.4 0
17 15.09 СВ 2 20 км н/о +28.4 +12.3 37 +30 +30 жарко 1021.3 1015.8
18 15.09 СВ 1
{4}
20 км н/о +26.0 +12.4 43 +28 +28 жарко 1021.4 1015.9 +12.9 +29.8 0
19 15.09 СВ 1 20 км н/о +22.8 +12.4 52 +26 +26 жарко 1021.6 1016.0
20 15.09 штиль 0 20 км н/о +20.1 +12.8 63 +22 +22 комфорт 1022.1 1016.4
21 15.09 СЗ 1
{3}
20 км н/о +19.7 +12.9 65 +22 +22 комфорт 1022.4 1016.7 0

 

Местоположение метеостанции Бокузе (Франция): широта 47.48 долгота -0.60 высота над уровнем моря 50 м.

В архиве по умолчанию представлена погода в Бокузе за последнюю неделю. Архивные данные за месяц целиком и за предыдущие месяцы, начиная с января 2011 года, Вы можете получить, выбрав интересующий диапазон дат из раскрывающегося списка и нажав кнопку "Ввод!".


*Определитесь, кто Вы:
робот инопланетянин человек

Внимание! Время в таблицах - всемирное. Для получения местного времени необходимо прибавить поправку, которая равна 1 ч.

Смотрите также архив погоды в соседних городах и на ближайших метеорологических станциях:

Погода в Марсе (Франция) (23 км)
Погода в Лавале (Франция) (62 км)
Погода в Ле-Мане (Франция) (78 км)
Погода в Нанте (Франция) (84 км)
Погода в Туре (Франция) (100 км)
Погода в Ла-Рош-сюр-Йоне (Франция) (105 км)
Погода в Ренне (Франция) (107 км)
Погода в Алансоне (Франция) (118 км)
Погода в Сен-Назере (Франция) (120 км)
Погода в Пуатье (Франция) (121 км)

Пояснения к столбцам:

Ветер - указаны скорость ветра в м/с - средняя за 10 мин, порывы в срок и между сроками (в фигурных скобках) и направление, откуда дует ветер: С - северный, СВ - северо-восточный, В - восточный, ЮВ - юго-восточный, Ю - южный, ЮЗ - юго-западный, З - западный, СЗ - северо-западный.
Видимость - горизонтальная дальность видимости в метрах или километрах. При видимости от 1 до 10 км при отсутствии осадков обычно наблюдается дымка, при ухудшении видимости до 1 км и менее - туман. В сухую погоду видимость может ухудшаться дымом, пылью или мглою.
Явления - указаны атмосферные явления, наблюдавшиеся в срок или в последний час перед сроком; фигурными скобками обозначены явления, наблюдавшиеся между сроками (за 1-3 часа до срока); квадратными скобками обозначены град или гололедные отложения с указанием их диаметра в мм.
Облачность - указаны через наклонную черту общая и нижняя облачность в баллах и высота нижней границы облаков в метрах; квадратными скобками обозначены формы облаков: Ci - перистые, Cs - перисто-слоистые, Cc - перисто-кучевые, Ac - высококучевые, As - высокослоистые, Sc - слоисто-кучевые, Ns - слоисто-дождевые, Cu - кучевые, Cb - кучево-дождевые. Подробнее классификацию облаков см. в Атласе облаков (PDF).
T - Температура воздуха - температура, измеренная на высоте 2 м над землей.
Td - Температура точки росы - температура, при понижении до которой содержащийся в воздухе водяной пар достигнет насыщения.
f - Относительная влажность воздуха - влажноcть воздуха, измеренная на высоте 2 м над землей.
Te - Эффективная температура - температура, которую ощущает одетый по сезону человек в тени. Характеристика душности погоды. При расчете учитывается влияние влажности воздуха и скорости ветра на теплоощущения человека.
Tes - Эффективная температура на солнце - температура, которую ощущает человек, с поправкой на солнечный нагрев. Характеристика знойности погоды. Зависит от высоты солнца над горизонтом, облачности и скорости ветра. Ночью, в пасмурную погоду, а также при ветре 12 м/с и более поправка равна нулю.
P - Атмосферное давление - приведенное к уровню моря атмосферное давление.
Po - Атмосферное давление - измеренное на уровне метеостанции атмосферное давление.
Tmin - Минимальная температура - минимум температуры воздуха на высоте 2 м над землей.
Tmax - Максимальная температура - максимум температуры воздуха на высоте 2 м над землей.
R - Количество осадков - Количество выпавших осадков за период времени, мм. При наведении курсора мыши на число - период времени, за который выпало указанное количество осадков.
R24 - Количество осадков - Количество выпавших осадков за 24 часа, мм.
S - Снежный покров - Высота снежного покрова, см. При наведении курсора мыши на число - состояние снежного покрова и степень покрытия местности в баллах.